Hibbing, MN

1:50 PM CDT on May 29, 2017 (GMT -0500)
Chisholm-hibbing

Weather History for KHIB - March, 2012

Change the Weather History Date:

Sunday, March 18, 2012

  Actual Average Record
Temperature  
Mean Temperature 62 °F -  
Max Temperature 77 °F 37 °F 77 °F (2012)
Min Temperature 50 °F 14 °F -16 °F (1967)
Degree Days  
Heating Degree Days 2    
Growing Degree Days 12 (Base 50)    
Moisture  
Dew Point 55 °F    
Average Humidity 75    
Maximum Humidity 100    
Minimum Humidity 48    
Precipitation  
Precipitation 0.00 in - - ()
Sea Level Pressure  
Sea Level Pressure 29.72 in    
Wind  
Wind Speed 8 mph (South)    
Max Wind Speed 17 mph    
Max Gust Speed 28 mph    
Visibility 10 miles    
Events      
Averages and records for this station are not official NWS values.
T = Trace of Precipitation, MM = Missing Value Source: NWS Daily Summary

Daily Weather History Graph

Daily Weather History Graph

Search for Another Location

Airport or City:

Trip Planner

Search our weather history database for the weather conditions in past years. The results will help you decide how hot, cold, wet, or windy it might be!

Date:

Astronomy

Mar. 18, 2012 Rise Set
Actual Time 7:17 AM CDT 7:21 PM CDT
Civil Twilight 6:46 AM CDT 7:52 PM CDT
Nautical Twilight 6:10 AM CDT 8:28 PM CDT
Astronomical Twilight 5:34 AM CDT 9:05 PM CDT
Moon 5:10 AM CDT (3/18) 3:36 PM CDT (3/18)
Length of Visible Light 13h 05m
Length of Day
12h 04m
Waning Crescent, 15% of the Moon is Illuminated
Mar 18
Waning Crescent
Mar 22
New
Mar 30
First Quarter
Apr 6
Full
Apr 13
Last Quarter

Hourly Weather History & Observations

Time (CDT) Temp. Dew Point Humidity Pressure Visibility Wind Dir Wind Speed Gust Speed Precip Events Conditions
12:53 AM 55.9 °F 53.1 °F 90% 29.74 in 10.0 mi SSE 6.9 mph - N/A   Mostly Cloudy
1:53 AM 55.0 °F 52.0 °F 89% 29.74 in 10.0 mi SSE 4.6 mph - N/A   Mostly Cloudy
2:53 AM 53.1 °F 52.0 °F 96% 29.73 in 9.0 mi SSE 3.5 mph - N/A   Mostly Cloudy
3:53 AM 50.0 °F 50.0 °F 100% 29.74 in 5.0 mi SSE 3.5 mph - N/A   Mostly Cloudy
4:53 AM 59.0 °F 55.0 °F 87% 29.73 in 10.0 mi South 5.8 mph - N/A   Mostly Cloudy
5:53 AM 59.0 °F 55.0 °F 87% 29.74 in 10.0 mi South 5.8 mph - N/A   Mostly Cloudy
6:53 AM 57.9 °F 55.0 °F 90% 29.75 in 10.0 mi South 6.9 mph - N/A   Scattered Clouds
7:53 AM 57.0 °F 55.0 °F 93% 29.75 in 8.0 mi South 6.9 mph - N/A   Clear
8:39 AM 60.8 °F 57.2 °F 88% 29.75 in 10.0 mi South 6.9 mph - N/A   Scattered Clouds
8:53 AM 60.1 °F 57.0 °F 90% 29.76 in 10.0 mi South 6.9 mph - N/A   Mostly Cloudy
9:31 AM 62.6 °F 57.2 °F 82% 29.75 in 10.0 mi South 8.1 mph - N/A   Mostly Cloudy
9:53 AM 64.0 °F 57.9 °F 80% 29.76 in 10.0 mi South 11.5 mph 17.3 mph N/A   Mostly Cloudy
10:29 AM 64.4 °F 57.2 °F 77% 29.75 in 10.0 mi South 10.4 mph 18.4 mph N/A   Scattered Clouds
10:53 AM 66.2 °F 57.2 °F 73% 29.74 in 10.0 mi SSW 9.2 mph 20.7 mph N/A   Clear
11:53 AM 69.8 °F 57.2 °F 64% 29.74 in 10.0 mi SSW 12.7 mph 23.0 mph N/A   Clear
12:53 PM 70.0 °F 55.9 °F 61% 29.73 in 10.0 mi SSW 12.7 mph 21.9 mph N/A   Overcast
1:53 PM 75.0 °F 55.0 °F 50% 29.71 in 10.0 mi SSW 16.1 mph 26.5 mph N/A   Partly Cloudy
2:53 PM 73.9 °F 55.0 °F 52% 29.70 in 10.0 mi SSW 16.1 mph 27.6 mph N/A   Mostly Cloudy
3:53 PM 75.9 °F 55.0 °F 48% 29.68 in 10.0 mi SSW 12.7 mph 25.3 mph N/A   Clear
4:53 PM 75.2 °F 55.4 °F 50% 29.67 in 10.0 mi South 17.3 mph 26.5 mph N/A   Partly Cloudy
5:53 PM 75.0 °F 54.0 °F 48% 29.66 in 10.0 mi South 9.2 mph 19.6 mph N/A   Clear
6:53 PM 73.0 °F 54.0 °F 51% 29.67 in 10.0 mi South 9.2 mph - N/A   Clear
7:53 PM 64.9 °F 53.1 °F 65% 29.68 in 10.0 mi SSE 9.2 mph - N/A   Partly Cloudy
8:53 PM 63.0 °F 52.0 °F 67% 29.70 in 10.0 mi SSE 6.9 mph - N/A   Clear
9:53 PM 57.9 °F 51.1 °F 78% 29.70 in 10.0 mi SSE 6.9 mph - N/A   Clear
10:53 PM 57.9 °F 52.0 °F 81% 29.70 in 10.0 mi SSE 9.2 mph - N/A   Clear